METEOR 2-6 DEB, 45501

Orbit data source: Space-Track

METEOR 2-6 DEB, 45501 is space debris in LEO originally from a launch on Tue, 09 Sep 1980 UTC launched from the Plesetsk Missile And Space Complex (PKMTR). Debris objects in space refer to the collection of defunct objects orbiting the Earth. Examples of debris include non-operational satellites, rocket bodies, and fragments generated from explosions, collisions, or faulty payload assembly.

Loading next visibility...
Identifier
45501, 1980-073V
Orbit
LEO
Country
Flag of CISCIS
Related business
Manufacturer
Unknown
Mission
Spacecraft
Bus & Motor
Unknown
Mass
Unknown
Launch date (UTC)
1980-09-09 (46 years ago)
Launch vehicle
Unknown
Launch site
Plesetsk Missile And Space Complex (PKMTR)
Object type
Payload
Rocket body
Debris
Shape & HBR
Unknown shape, 0.050 m
Radar Cross Section
Small (<0.1 m²)

Expand to show TLE details & history
Last TLE update: 1 day ago

TLE from 1 day ago
0 METEOR 2-6 DEB
1 45501U 80073V   26266.40802660  .00002904  00000-0  96758-3 0  9994
2 45501  81.2134 293.4548 0032930  21.5041 338.7519 14.37112526584400
Epoch: 2026-09-23T09:47Z
TLE epoch observation values (Epoch: 2026-09-23T09:47:33.498Z)
Latitude
-0.00002°
Longitude
144.30564°
Altitude
749.063 km
Speed
7.492 km/s
True Right ascension
19h 33m 49s
True Declination
0° 00' 00"
Sunlit
Object was in daylight at epoch
Visualization orbit readout
Latitude
Unknown
Longitude
Unknown
Altitude
Unknown
Speed
Unknown
Apparent Right ascension
Unknown
Apparent Declination
Unknown
Sunlit
N/A
Visualization observer readout
Local Sidereal Time
10:06:22
Azimuth
Unknown
Elevation
Unknown
Doppler factor
Unknown
Orbital elements
Apogee altitude
788.717 km
Perigee altitude
741.671 km
Semi-major axis
7,143.331 km
Eccentricity
0.00329
Inclination
81.2134°
RAAN
293.4548°
Arg. of periapsis
21.5041°
True anomaly
338.61462°
Mean anomaly
338.7519°
Eccentric anomaly
338.68331°
Mean motion
3.59494 °/min
Orbital period
100.14 mins
BSTAR
0.00096758
Loading maneuver chart data...
Computing Atmospheric mass density...
Loading historical data...
Loading historical data...
Loading historical data...
Loading historical data...
Loading historical data...
Loading historical data...
Loading historical data...

Documentation

Showing up to 5 results
|